When you browse on this site, cookies collect data to enhance your experience and personalize the content and advertising you see.
Visit our Privacy Policy to learn more. By continuing to use the site, you agree to this use of cookies and data.
  • In Hungary
  • List of Countries
  • For 7 days
  • Water Temperature
  • Satellite Maps
  • Weather Map
  • News
  • Weather Widgets
  • user-avatar
    Login

    Hourly Weather Sborovskiy

    Today, 16 November, Friday

    Time Temperature Precipitation Wind Pressure Humidity
    00:00 -6°C° 0 mm 2 mps 768 mmHg 30%
    01:00 -6°C° 0 mm 2 mps 769 mmHg 30%
    02:00 -6°C° 0 mm 2 mps 769 mmHg 31%
    03:00 -6°C° 0 mm 2 mps 769 mmHg 31%
    04:00 -4°C° 0 mm 1 mps 769 mmHg 30%
    05:00 -4°C° 0 mm 1 mps 769 mmHg 31%
    06:00 -6°C° 0 mm 2 mps 769 mmHg 31%
    07:00 -6°C° 0 mm 2 mps 769 mmHg 31%
    08:00 -6°C° 0 mm 2 mps 769 mmHg 30%
    09:00 -5°C° 0 mm 2 mps 769 mmHg 28%
    10:00 -4°C° 0 mm 2 mps 770 mmHg 27%
    11:00 -3°C° 0 mm 2 mps 769 mmHg 25%
    12:00 -2°C° 0 mm 2 mps 769 mmHg 23%
    13:00 -1°C° 0 mm 2 mps 769 mmHg 21%
    14:00 -2°C° 0 mm 2 mps 769 mmHg 22%
    15:00 -2°C° 0 mm 2 mps 769 mmHg 24%
    16:00 -3°C° 0 mm 2 mps 769 mmHg 27%
    17:00 -3°C° 0 mm 2 mps 768 mmHg 28%
    18:00 -4°C° 0 mm 2 mps 768 mmHg 29%
    19:00 -4°C° 0 mm 2 mps 768 mmHg 30%
    20:00 -2°C° 0 mm 1 mps 768 mmHg 31%
    21:00 -3°C° 0 mm 1 mps 768 mmHg 32%
    22:00 -3°C° 0 mm 1 mps 768 mmHg 32%
    23:00 -3°C° 0 mm 1 mps 767 mmHg 33%

    Tomorrow, 17 November, Saturday

    Time Temperature Precipitation Wind Pressure Humidity
    00:00 -3°C° 0 mm 1 mps 767 mmHg 33%
    01:00 -3°C° 0 mm 1 mps 767 mmHg 33%
    02:00 -3°C° 0 mm 1 mps 766 mmHg 33%
    03:00 -6°C° 0 mm 2 mps 766 mmHg 32%
    04:00 -6°C° 0 mm 2 mps 766 mmHg 32%
    05:00 -6°C° 0 mm 2 mps 765 mmHg 31%
    06:00 -6°C° 0 mm 2 mps 765 mmHg 30%
    07:00 -6°C° 0 mm 2 mps 764 mmHg 29%
    08:00 -6°C° 0 mm 3 mps 764 mmHg 27%
    09:00 -5°C° 0 mm 3 mps 764 mmHg 26%
    10:00 -5°C° 0 mm 3 mps 763 mmHg 24%
    11:00 -4°C° 0 mm 3 mps 763 mmHg 23%
    12:00 -3°C° 0 mm 4 mps 762 mmHg 21%
    13:00 -2°C° 0 mm 4 mps 761 mmHg 20%
    14:00 -2°C° 0 mm 4 mps 761 mmHg 22%
    15:00 -1°C° 0 mm 3 mps 760 mmHg 24%
    16:00 -2°C° 0 mm 3 mps 760 mmHg 25%
    17:00 -2°C° 0 mm 3 mps 760 mmHg 27%
    18:00 -2°C° 0 mm 3 mps 759 mmHg 28%
    19:00 -4°C° 0 mm 3 mps 759 mmHg 29%
    20:00 -4°C° 0 mm 3 mps 758 mmHg 30%
    21:00 -4°C° 0 mm 3 mps 758 mmHg 31%
    22:00 -4°C° 0 mm 3 mps 758 mmHg 33%
    23:00 -4°C° 0 mm 3 mps 757 mmHg 33%

    Day after tomorrow, 18 November, Sunday

    Time Temperature Precipitation Wind Pressure Humidity
    00:00 -4°C° 0 mm 3 mps 757 mmHg 33%
    01:00 -4°C° 0 mm 3 mps 756 mmHg 33%
    02:00 -4°C° 0 mm 3 mps 756 mmHg 33%
    03:00 -4°C° 0 mm 3 mps 756 mmHg 33%
    04:00 -4°C° 0 mm 3 mps 756 mmHg 32%
    05:00 -4°C° 0 mm 3 mps 755 mmHg 31%
    06:00 -4°C° 0 mm 3 mps 755 mmHg 30%
    07:00 -4°C° 0 mm 3 mps 755 mmHg 29%
    08:00 -4°C° 0 mm 3 mps 755 mmHg 28%
    09:00 -3°C° 0 mm 4 mps 755 mmHg 26%
    10:00 -3°C° 0 mm 4 mps 755 mmHg 25%
    11:00 -2°C° 0 mm 4 mps 755 mmHg 25%
    12:00 -1°C° 0 mm 4 mps 755 mmHg 24%
    13:00 -1°C° 0 mm 4 mps 754 mmHg 24%
    14:00 -1°C° 0 mm 4 mps 754 mmHg 26%
    15:00 -1°C° 0 mm 3 mps 755 mmHg 28%
    16:00 -1°C° 0 mm 3 mps 755 mmHg 31%
    17:00 -2°C° 0 mm 3 mps 755 mmHg 31%
    18:00 -4°C° 0 mm 3 mps 755 mmHg 32%
    19:00 -4°C° 0 mm 3 mps 755 mmHg 32%
    20:00 -4°C° 0 mm 3 mps 755 mmHg 32%
    21:00 -3°C° 0 mm 2 mps 755 mmHg 31%
    22:00 -4°C° 0 mm 2 mps 755 mmHg 31%
    23:00 -4°C° 0 mm 2 mps 756 mmHg 31%

    19 November, Monday

    Time Temperature Precipitation Wind Pressure Humidity
    00:00 -4°C° 0 mm 2 mps 756 mmHg 30%
    01:00 -4°C° 0 mm 2 mps 756 mmHg 30%
    02:00 -2°C° 0 mm 1 mps 756 mmHg 30%
    03:00 -2°C° 0 mm 1 mps 757 mmHg 30%
    04:00 -4°C° 0 mm 0 mps 757 mmHg 30%
    05:00 -4°C° 0 mm 0 mps 757 mmHg 30%
    06:00 -4°C° 0 mm 0 mps 757 mmHg 29%
    07:00 -3°C° 0 mm 1 mps 757 mmHg 29%
    08:00 -3°C° 0 mm 0 mps 758 mmHg 28%
    09:00 -3°C° 0 mm 0 mps 758 mmHg 27%
    10:00 -2°C° 0 mm 0 mps 759 mmHg 26%
    11:00 -1°C° 0 mm 0 mps 759 mmHg 24%
    12:00 0°C° 0 mm 0 mps 759 mmHg 23%
    13:00 0°C° 0 mm 0 mps 759 mmHg 22%
    14:00 +1°C° 0 mm 1 mps 759 mmHg 24%
    15:00 0°C° 0 mm 1 mps 760 mmHg 26%
    16:00 0°C° 0 mm 1 mps 760 mmHg 28%
    17:00 -1°C° 0 mm 1 mps 760 mmHg 29%
    18:00 -3°C° 0 mm 2 mps 760 mmHg 30%
    19:00 -4°C° 0 mm 2 mps 760 mmHg 32%
    20:00 -4°C° 0 mm 2 mps 760 mmHg 32%
    21:00 -4°C° 0 mm 2 mps 761 mmHg 33%
    22:00 -4°C° 0 mm 2 mps 761 mmHg 34%
    23:00 -5°C° 0 mm 2 mps 761 mmHg 36%

    20 November, Tuesday

    Time Temperature Precipitation Wind Pressure Humidity
    00:00 -5°C° 0 mm 2 mps 761 mmHg 37%
    01:00 -5°C° 0 mm 2 mps 761 mmHg 39%
    02:00 -5°C° 0 mm 2 mps 761 mmHg 42%
    03:00 -5°C° 0 mm 2 mps 761 mmHg 45%
    04:00 -5°C° 0 mm 2 mps 761 mmHg 48%
    05:00 -5°C° 0 mm 2 mps 761 mmHg 52%
    06:00 -6°C° 0 mm 2 mps 761 mmHg 56%
    07:00 -6°C° 0 mm 2 mps 761 mmHg 61%
    08:00 -5°C° 0 mm 2 mps 761 mmHg 62%
    09:00 -5°C° 0 mm 2 mps 761 mmHg 64%
    10:00 -4°C° 0 mm 2 mps 762 mmHg 65%
    11:00 -3°C° 0 mm 2 mps 761 mmHg 65%
    12:00 0°C° 0 mm 1 mps 761 mmHg 65%
    13:00 +1°C° 0 mm 1 mps 761 mmHg 65%
    14:00 0°C° 0 mm 1 mps 761 mmHg 68%
    15:00 0°C° 0 mm 1 mps 761 mmHg 71%
    16:00 0°C° 0 mm 1 mps 761 mmHg 74%
    17:00 -1°C° 0 mm 1 mps 761 mmHg 76%
    18:00 -1°C° 0 mm 1 mps 761 mmHg 79%
    19:00 -2°C° 0 mm 1 mps 761 mmHg 81%
    20:00 -3°C° 0 mm 0 mps 761 mmHg 82%
    21:00 -3°C° 0 mm 0 mps 761 mmHg 83%
    22:00 -3°C° 0 mm 0 mps 760 mmHg 84%
    23:00 -3°C° 0 mm 0 mps 760 mmHg 85%

    21 November, Wednesday

    Time Temperature Precipitation Wind Pressure Humidity
    00:00 -3°C° 0 mm 0 mps 760 mmHg 85%
    01:00 -2°C° 0 mm 1 mps 760 mmHg 85%
    02:00 -2°C° 0 mm 1 mps 760 mmHg 86%
    03:00 -2°C° 0 mm 1 mps 760 mmHg 86%
    04:00 -3°C° 0 mm 1 mps 759 mmHg 86%
    05:00 -3°C° 0 mm 1 mps 759 mmHg 86%
    06:00 -3°C° 0 mm 1 mps 759 mmHg 85%
    07:00 -3°C° 0 mm 1 mps 758 mmHg 84%
    08:00 -2°C° 0 mm 1 mps 758 mmHg 81%
    09:00 -2°C° 0 mm 1 mps 758 mmHg 77%
    10:00 -1°C° 0 mm 1 mps 758 mmHg 74%
    11:00 -1°C° 0 mm 1 mps 758 mmHg 71%
    12:00 -2°C° 0 mm 2 mps 758 mmHg 68%
    13:00 -2°C° 0 mm 2 mps 757 mmHg 65%
    14:00 -2°C° 0 mm 2 mps 757 mmHg 66%
    15:00 0°C° 0 mm 1 mps 757 mmHg 67%
    16:00 -1°C° 0 mm 1 mps 756 mmHg 68%
    17:00 -1°C° 0 mm 1 mps 756 mmHg 68%
    18:00 -1°C° 0 mm 1 mps 756 mmHg 69%
    19:00 -1°C° 0 mm 1 mps 755 mmHg 70%
    20:00 -1°C° 0 mm 1 mps 755 mmHg 70%
    21:00 -1°C° 0 mm 1 mps 755 mmHg 70%
    22:00 -1°C° 0 mm 1 mps 754 mmHg 71%
    23:00 -1°C° 0 mm 1 mps 754 mmHg 71%
    Show more